x

8454000 - Providence, Ri (foxr1) Weather Station

9:30 - Tue 24th Jan 2017 All times are EST. -5 hours from GMT.

  • Wind
    24mph, 34mph gusts
  • Sea Temp 39°f
  • Ar Temp 42°f
  • Sea Pressure 993.9mb
  • 8454000 - Providence, Ri
  • 8454000 - Providence, Ri

More Historic Weather Station data

Upgrade to MSW Pro to gain access to the past 30 days of data for over 8000 Wavebouys and Weather Stations around the globe.

Join Pro

Comparision Forecast

View Surf forecast
   
Ter 01/24 9:30 24 34 mph 993.9mb 39f 42f
9:24 26 37 mph 994mb 39f 42f
9:18 25 37 mph 994mb 39f 42f
9:12 24 32 mph 994.1mb 39f 42f
9:06 26 36 mph 994.1mb 39f 42f
9:00 23 36 mph 994.2mb 39f 42f
8:54 26 33 mph 994.3mb 39f 42f
8:48 25 37 mph 994.4mb 39f -
8:42 23 31 mph 994.5mb 40f 42f
8:36 23 31 mph 994.4mb 40f 42f
8:30 22 33 mph 994.2mb 40f 42f
8:24 26 32 mph 994.2mb 40f 42f
8:18 23 31 mph 994.4mb 40f 42f
8:12 23 32 mph 994.4mb 40f 42f
8:06 22 37 mph 994.5mb 40f 42f
8:00 24 31 mph 994.4mb 40f 42f
7:54 24 30 mph 994.4mb 40f 42f
7:48 23 32 mph 994.3mb - -
7:42 21 26 mph 994.7mb 40f 41f
7:36 22 30 mph 995.1mb 40f 41f
7:30 22 30 mph 995.1mb 40f 41f
7:24 17 29 mph 995.1mb 40f 41f
7:18 23 29 mph 995.1mb 40f 41f
7:12 22 33 mph 995.4mb 40f 41f
7:06 16 31 mph 995.4mb 40f 41f
7:00 18 33 mph 995.5mb 40f 41f
6:54 16 28 mph 995.8mb 40f 41f
6:48 21 29 mph 996.1mb 40f 41f
6:42 18 30 mph 996.1mb 40f 41f
6:36 17 31 mph 996mb 40f 41f
6:30 21 26 mph 996.3mb 40f 41f
6:24 21 28 mph 996.4mb 40f 40f
6:18 15 31 mph 996.3mb - -
6:12 22 32 mph 996.2mb 40f 40f
6:06 21 30 mph 996.3mb 40f 40f
6:00 20 28 mph 996.3mb 40f 40f
5:54 22 33 mph 996.5mb 40f 40f
5:48 20 30 mph 996.5mb 40f 40f
5:42 22 36 mph 996.6mb 40f 40f
5:36 24 32 mph 996.6mb 40f 40f
5:30 22 31 mph 996.8mb 40f 40f
5:24 21 33 mph 997.1mb 40f 40f
5:18 22 31 mph 997.1mb 40f 40f
5:12 20 34 mph 997.2mb 40f 40f
5:06 22 26 mph 997.3mb 40f 40f
5:00 18 24 mph 997.5mb 40f 40f
4:54 15 29 mph 997.3mb 41f 40f
4:48 18 26 mph 997.3mb 40f -
4:42 17 25 mph 997.8mb 40f 40f
4:36 20 31 mph 997.8mb 40f 40f
4:30 21 29 mph 998.2mb 40f 40f
4:24 17 28 mph 998.2mb 41f 40f
4:18 22 32 mph 997.7mb 41f 40f
4:12 21 32 mph 997.6mb 41f 40f
4:06 22 33 mph 997.6mb 41f 40f
4:00 22 30 mph 997.6mb 41f 40f
3:54 22 31 mph 998mb 41f 40f
3:48 18 34 mph 997.9mb - -
3:42 24 36 mph 998.2mb 41f 40f
3:36 22 25 mph 998.2mb 41f 40f
3:30 20 29 mph 998.7mb 41f 40f
3:24 18 29 mph 998.7mb 41f 40f
3:18 23 31 mph 998.7mb 41f 40f
3:12 20 36 mph 998.8mb 41f 40f
3:06 22 33 mph 998.8mb 41f 40f
3:00 23 34 mph 998.8mb 41f 40f
2:54 20 29 mph 999mb 41f 39f
2:48 20 32 mph 999.2mb 41f 39f
2:42 21 33 mph 999.2mb 41f 39f
2:36 25 32 mph 999.5mb 41f 39f
2:30 22 30 mph 999.8mb 41f 39f
2:24 22 37 mph 1000mb 41f 39f
2:18 23 29 mph 1000mb - -
2:12 17 28 mph 1000.3mb 40f 39f
2:06 20 32 mph 1000.4mb 40f 39f
2:00 21 30 mph 1000.5mb 40f 39f
1:54 22 30 mph 1000.5mb 40f 39f
1:48 22 33 mph 1001mb 40f 39f
1:42 21 29 mph 1001mb 40f -
1:36 20 28 mph 1001mb 40f -
1:30 23 37 mph 1000.9mb 40f 39f
1:24 18 31 mph 1001.2mb 40f 39f
1:18 23 30 mph 1001.4mb 40f 39f
1:12 21 31 mph 1001.4mb 40f 39f
1:06 22 32 mph 1001.5mb 40f 39f
1:00 22 31 mph - - -
12:54 20 33 mph 1002mb 40f 39f
12:48 22 30 mph 1002.3mb - -
12:42 17 28 mph 1002.3mb 40f 39f
12:36 20 29 mph 1002.3mb 40f 39f
12:30 22 25 mph 1002.3mb 40f 39f
12:24 17 33 mph 1002.5mb 40f 39f
12:18 23 29 mph 1002.6mb 40f 39f
12:12 18 26 mph 1002.8mb 40f 39f
12:06 20 29 mph 1003.1mb 40f 39f
12:00 20 31 mph 1003.2mb 40f 39f
Seg 01/23 11:54 22 29 mph 1003.2mb 40f 39f
11:48 23 31 mph - - -
11:42 20 26 mph 1003.7mb 40f 39f
11:36 23 31 mph 1003.9mb 40f 39f
11:30 22 28 mph 1004mb 40f 39f
11:24 21 28 mph 1004.3mb 40f 39f
11:18 24 31 mph 1004.3mb 40f 39f
11:12 22 29 mph 1004.7mb 40f 39f
11:06 21 30 mph 1004.8mb 40f 39f
11:00 22 28 mph 1004.8mb 40f 39f
10:54 20 26 mph 1004.8mb 40f 39f
10:48 18 29 mph 1004.9mb 40f 39f
10:42 16 28 mph 1005.1mb 40f 39f
10:36 18 23 mph 1005.1mb 40f 39f
10:30 20 26 mph 1005.1mb 40f 39f
10:24 21 28 mph 1005.2mb 40f 39f
10:18 20 26 mph 1005.2mb 40f 39f
10:12 20 28 mph 1005.4mb 40f 39f
10:06 20 28 mph 1005.4mb 40f 39f
10:00 21 30 mph 1005.6mb 40f 39f
9:54 22 26 mph 1006.2mb 40f 39f
9:48 20 25 mph 1006.2mb 40f 39f
9:42 16 24 mph 1006.4mb 40f 38f
9:36 21 26 mph 1006.4mb 40f 38f
9:30 21 25 mph 1006.5mb 40f 38f
9:24 20 28 mph 1006.5mb 40f 38f
9:18 18 25 mph 1006.6mb 40f 38f
9:12 21 25 mph 1006.7mb 40f 38f
9:06 16 25 mph 1007mb 40f 38f
9:00 16 26 mph 1007.2mb 40f 38f
8:54 20 28 mph 1007.2mb 40f 38f
8:48 18 25 mph 1007.3mb 40f 38f
8:42 18 26 mph 1007.3mb 40f 38f
8:36 20 22 mph 1007.3mb 40f 38f
8:30 17 30 mph 1007.3mb 40f 38f
8:24 20 24 mph 1007.3mb 40f 38f
8:18 16 30 mph 1007.5mb 40f 38f
8:12 18 26 mph 1007.3mb 40f 38f
8:06 20 26 mph 1007.4mb 40f 38f
8:00 15 21 mph 1007.4mb 40f -
7:54 17 26 mph 1007.4mb 40f 38f
7:48 16 29 mph - - -
7:42 22 31 mph 1007.3mb 40f 38f
7:36 20 26 mph 1007.4mb 40f 38f
7:30 20 28 mph 1007.6mb 40f 38f
7:24 20 26 mph 1007.7mb 40f 38f
7:18 20 26 mph 1007.7mb 40f 38f
7:12 16 29 mph 1007.6mb 40f 38f
7:06 20 28 mph 1007.4mb 40f 38f
7:00 14 26 mph 1007.8mb 40f 38f
6:54 16 22 mph 1007.8mb 40f 38f
6:48 18 28 mph - - -
6:42 13 25 mph 1008.1mb 40f 38f
6:36 14 25 mph 1008.1mb 40f 38f
6:30 13 25 mph 1008.3mb 40f 38f
6:24 15 33 mph 1008.5mb 40f 38f
6:18 17 26 mph 1008.5mb 40f 38f
6:12 22 31 mph 1008.6mb 40f 38f
6:06 15 31 mph 1008.7mb 40f 38f
6:00 20 32 mph 1008.8mb 40f 38f
5:54 17 28 mph 1008.9mb 40f 38f
5:48 17 24 mph 1009.2mb 40f 38f
5:42 13 22 mph 1009.2mb 40f 39f
5:36 14 21 mph 1009.3mb 40f 39f
5:30 15 29 mph 1009.3mb 40f -
5:24 16 31 mph 1009.4mb 40f 38f
5:18 16 30 mph - - -
5:12 16 24 mph 1009.6mb 40f 38f
5:06 18 30 mph 1009.6mb 40f 38f
5:00 10 21 mph 1009.7mb 40f 38f
4:54 17 28 mph 1010mb 40f 38f
4:48 13 22 mph 1010.2mb 40f 38f
4:42 14 33 mph 1010.2mb 41f 38f
4:36 10 20 mph 1010.2mb 41f 38f
4:30 10 17 mph 1010.5mb 41f 38f
4:24 13 17 mph 1010.7mb 41f 38f
4:18 13 20 mph 1010.6mb 41f 38f
4:12 18 23 mph 1010.6mb 41f 38f
4:06 11 25 mph 1010.6mb 41f 38f
4:00 15 24 mph 1010.7mb 41f 38f
3:54 13 17 mph 1010.7mb 41f 38f
3:48 15 23 mph 1010.6mb 41f 38f
3:42 14 24 mph 1010.7mb 41f 38f
3:36 15 26 mph 1010.9mb 41f 38f
3:30 13 23 mph 1011.2mb 41f 38f
3:24 10 22 mph 1011.1mb 41f 38f
3:18 14 21 mph 1011.4mb - -
3:12 13 28 mph 1011.6mb 41f 38f
3:06 10 21 mph 1011.6mb 41f 38f
3:00 13 29 mph 1011.5mb 41f 38f
2:54 11 22 mph 1011.5mb 41f 38f
2:48 11 24 mph 1011.5mb 41f 38f
2:42 11 24 mph 1011.4mb 41f 38f
2:36 15 22 mph 1011.5mb 41f 38f
2:30 11 18 mph 1011.6mb 41f 38f
2:24 14 26 mph 1011.5mb 41f 38f
2:18 17 26 mph 1011.5mb 41f 38f
2:12 14 25 mph 1011.4mb 40f 38f
2:06 14 25 mph 1011.5mb 40f 37f
2:00 11 18 mph 1011.3mb 40f 37f
1:54 11 20 mph 1011.3mb 40f 37f
1:48 10 20 mph 1011.5mb 40f 37f
1:42 9 18 mph 1011.6mb 40f 38f
1:36 20 28 mph 1012mb 40f 38f
1:30 10 20 mph 1012.4mb 40f 38f
1:24 14 20 mph 1012.3mb 40f 38f
1:18 8 18 mph 1012.1mb 40f 38f
1:12 11 20 mph 1012.2mb 40f 38f
1:06 16 24 mph 1012.2mb 40f 38f
1:00 10 20 mph 1012.5mb 40f 38f
12:54 9 16 mph 1012.6mb 40f 38f
12:48 11 15 mph 1012.6mb 40f 37f
12:42 11 20 mph 1012.7mb 40f 37f
12:36 15 22 mph 1012.7mb 40f 38f
12:30 13 20 mph 1012.7mb 40f 38f
12:24 14 21 mph 1012.9mb 40f 38f
12:18 13 17 mph 1012.9mb 40f -
12:12 11 21 mph 1013.1mb 40f 38f
12:06 15 24 mph 1013.6mb 40f 38f
12:00 10 21 mph 1013.7mb 40f 38f
11:54 10 21 mph 1014mb 40f 37f
11:48 10 21 mph 1014mb 40f -
11:42 10 20 mph 1013.9mb 40f 38f
11:36 17 24 mph 1013.8mb 40f 38f
11:30 15 24 mph 1013.8mb 40f 38f
11:24 14 24 mph 1013.7mb 40f 38f
11:18 11 20 mph 1013.7mb 40f 38f
11:12 14 22 mph 1013.6mb 40f 38f
11:06 17 22 mph 1013.8mb 40f 38f
11:00 11 26 mph 1013.7mb 40f 38f
10:54 14 25 mph 1013.8mb 40f 38f
10:48 14 25 mph 1013.8mb 40f -
10:42 16 25 mph 1014.1mb 40f 38f
10:36 11 17 mph 1014.3mb 40f 38f
10:30 13 18 mph 1014.3mb 40f 38f
10:24 11 24 mph 1014.4mb 40f 38f
10:18 14 21 mph 1014.8mb 40f 38f
10:12 13 21 mph 1014.7mb 40f 38f
10:06 15 25 mph 1014.6mb 40f 38f
10:00 13 22 mph 1014.7mb 40f 38f
9:54 11 22 mph 1014.7mb 40f 37f
9:48 11 15 mph 1014.8mb 40f 37f
9:42 11 17 mph 1015mb 40f 37f
9:36 10 21 mph 1015mb 40f 37f
9:30 14 22 mph 1014.8mb 40f 37f
9:24 13 23 mph 1015mb 40f 37f
9:18 13 22 mph 1015.3mb 40f 37f
9:12 8 17 mph 1015.3mb 40f 37f
9:06 7 16 mph 1015.2mb 40f 37f
9:00 11 18 mph 1015.2mb 40f 37f
8:54 13 21 mph 1015.2mb 40f 37f
8:48 9 14 mph 1015mb 40f -
8:42 8 11 mph 1015.2mb 40f 37f
8:36 8 15 mph 1014.9mb 40f 37f
8:30 10 17 mph 1014.9mb 40f 37f
8:24 11 16 mph 1014.7mb 40f 36f
8:18 9 15 mph 1014.7mb 40f 37f
8:12 13 17 mph 1014.4mb 40f 36f
8:06 8 14 mph 1014.2mb 40f 36f
8:00 10 16 mph 1014.2mb 40f 36f
7:54 9 21 mph 1014.4mb 40f 36f
7:48 10 16 mph 1014.4mb 40f 37f
7:42 10 17 mph 1014.6mb 40f 37f
7:36 9 18 mph 1014.6mb 40f 37f
7:30 10 20 mph 1014.7mb 40f 37f
7:24 8 14 mph 1014.8mb 40f 36f
7:18 9 15 mph 1014.7mb - -
7:12 9 14 mph 1014.6mb 40f 36f
7:06 8 13 mph 1014.5mb 40f 36f
7:00 9 15 mph 1014.4mb 40f 36f
6:54 8 11 mph 1014.4mb 40f 36f
6:48 7 13 mph 1014.7mb 40f 36f
6:42 8 14 mph 1014.7mb 40f 36f
6:36 10 17 mph 1014.5mb 40f 37f
6:30 8 14 mph 1014.5mb 40f 37f
6:24 8 16 mph 1014.4mb 40f 37f
6:18 8 16 mph 1013.9mb 40f 37f
6:12 13 16 mph 1014mb 40f 37f
6:06 13 22 mph 1014mb 40f 37f
6:00 13 17 mph 1013.9mb 40f 37f
5:54 11 17 mph 1014mb 40f 37f
5:48 13 21 mph 1014.1mb 40f -
5:42 8 14 mph 1014.1mb 40f 37f
5:36 10 14 mph 1014.1mb 40f 37f
5:30 11 17 mph 1014.2mb 40f 37f
5:24 7 11 mph 1014.2mb 40f 38f
5:18 9 17 mph 1014.3mb 40f 38f
5:12 13 15 mph 1014mb 40f 38f
5:06 8 15 mph 1014mb 40f 38f
5:00 9 16 mph 1014mb 40f 38f
4:54 9 20 mph 1013.9mb 40f 38f
4:48 15 22 mph 1013.4mb 40f 38f
4:42 11 22 mph 1013mb 40f 38f
4:36 14 22 mph 1012.7mb 40f 38f
4:30 13 18 mph 1012.6mb 40f 39f
4:24 14 20 mph 1012.6mb 40f 39f
4:18 13 16 mph 1012.3mb 40f 39f
4:12 13 18 mph 1012.3mb 40f 39f
4:06 13 18 mph 1012.2mb 41f 39f
4:00 11 20 mph 1012.8mb 41f 39f
3:54 13 17 mph 1012.8mb 41f 39f
3:48 14 20 mph 1013mb 41f 39f
3:42 14 20 mph 1013mb 41f 39f
3:36 9 20 mph 1013.3mb 41f 39f
3:30 15 20 mph 1013.5mb 41f 39f
3:24 11 15 mph 1013.5mb 41f 39f
3:18 9 14 mph 1013.6mb 41f 40f
3:12 7 14 mph 1013.6mb 41f 40f
3:06 11 17 mph 1013.5mb 41f 40f
3:00 13 16 mph 1013.5mb 41f 40f
2:54 11 15 mph 1013.5mb 41f 40f
2:48 11 16 mph 1013.5mb 41f 40f
2:42 9 15 mph 1013.5mb 41f 40f
2:36 14 18 mph 1013.3mb 41f 40f
2:30 14 20 mph 1013.2mb 41f 40f
2:24 10 15 mph 1013.2mb 41f 40f
2:18 10 17 mph 1013.1mb 41f 40f
2:12 9 18 mph 1013.1mb 41f 40f
2:06 9 14 mph 1013.1mb 41f 40f
2:00 8 13 mph 1013.2mb 41f 40f
1:54 7 14 mph 1013.2mb 41f 40f
1:48 10 15 mph 1013.2mb 41f 40f
1:42 8 13 mph 1013.1mb 41f 40f
1:36 7 14 mph 1013mb 41f 40f
1:30 9 15 mph 1013mb 41f 40f
1:24 9 13 mph 1013mb 41f 40f
1:18 10 11 mph 1013mb 41f 40f
1:12 9 14 mph 1012.8mb 41f 40f
1:06 8 14 mph 1012.7mb 41f 40f
1:00 10 14 mph 1012.9mb 41f 40f
12:54 8 13 mph 1012.9mb 41f 40f
12:48 9 13 mph 1012.7mb 41f 40f
12:42 10 13 mph 1012.6mb - -
12:36 10 15 mph 1012.5mb - -
12:30 11 15 mph 1012.5mb 41f 40f
12:24 11 18 mph 1012.6mb 41f 40f
12:18 13 18 mph 1012.6mb - -
12:12 10 17 mph 1012.4mb 41f 40f
12:06 8 15 mph 1012.4mb 41f 40f
12:00 10 15 mph 1012.6mb 41f 40f
Dom 01/22 11:54 10 16 mph 1012.6mb 41f 40f
11:48 9 17 mph 1012.6mb 40f 40f
11:42 9 14 mph 1012.5mb 40f 41f
11:36 9 14 mph 1012.5mb 40f 41f
11:30 8 13 mph 1012.3mb 40f 41f
11:24 10 16 mph 1012.3mb 40f 41f
11:18 11 17 mph 1012.4mb 40f 41f
11:12 13 16 mph 1012.4mb 40f 41f
11:06 11 17 mph 1012.4mb 40f 41f
11:00 9 15 mph 1012.5mb 40f 41f
10:54 13 18 mph 1012.4mb 40f 41f
10:48 11 18 mph 1012.4mb 40f -
10:42 11 16 mph 1012.7mb 40f 41f
10:36 10 14 mph 1012.7mb 40f 41f
10:30 9 14 mph 1012.6mb 40f 41f
10:24 10 13 mph 1012.4mb 40f 41f
10:18 9 16 mph 1012.4mb 40f 41f
10:12 9 14 mph 1012.3mb 40f 41f
10:06 8 14 mph 1012.2mb 40f 41f
10:00 9 13 mph 1012.2mb 40f 41f
9:54 9 14 mph 1012.4mb 40f 41f
9:48 8 16 mph 1012.1mb - -
9:42 11 17 mph 1012.1mb 40f 41f
9:36 9 20 mph 1012.2mb 40f 41f
9:30 9 14 mph 1012.3mb 40f 41f
9:24 9 15 mph 1012.3mb 40f 41f
9:18 11 17 mph 1012.1mb 40f 41f
9:12 9 16 mph 1012.1mb 40f 41f
9:06 14 20 mph 1012mb 40f 41f
9:00 13 17 mph - 40f 41f
8:54 11 18 mph - 40f 41f
8:48 11 20 mph 1012.1mb - -
8:42 13 16 mph 1012.2mb 40f 41f
8:36 9 17 mph 1012.2mb 40f 42f
8:30 13 20 mph 1012.3mb 40f -
8:24 8 16 mph 1012mb 40f -
8:18 9 20 mph - - -
8:12 13 17 mph 1011.8mb 40f 42f
8:06 10 18 mph 1011.8mb 40f 42f
8:00 11 15 mph 1011.5mb 40f 42f
7:54 14 20 mph 1011.2mb 40f 42f
7:48 13 17 mph 1011mb 40f 42f
7:42 11 18 mph 1011.1mb 40f 42f
7:36 15 22 mph 1011mb 40f 42f
7:30 11 20 mph 1010.9mb 40f 42f
7:24 15 20 mph 1010.8mb 40f 42f
7:18 11 16 mph - - -
7:12 8 18 mph 1010.4mb 40f 43f
7:06 11 21 mph 1010.1mb 40f 43f
7:00 10 15 mph 1010.2mb 40f 43f
6:54 11 14 mph 1010.3mb 40f 43f
6:48 13 18 mph 1010.4mb - -
6:42 10 15 mph 1010.5mb 40f -
6:36 10 15 mph 1010.5mb 40f -
6:30 7 13 mph 1010.6mb 40f 43f
6:24 11 14 mph 1010.7mb 40f 43f
6:18 10 15 mph 1010.7mb 40f 44f
6:12 10 16 mph 1010.6mb 40f 44f
6:06 11 17 mph 1010.6mb 40f 44f
6:00 9 14 mph 1010.6mb 40f 44f
5:54 8 14 mph 1010.5mb 40f 44f
5:48 11 16 mph - 40f -
5:42 11 18 mph - 40f 44f
5:36 14 17 mph - 40f 44f
5:30 11 15 mph 1009.6mb 40f 44f
5:24 10 16 mph 1009.6mb 40f 44f
5:18 10 13 mph 1009.2mb 40f 45f
5:12 11 18 mph 1009mb 40f 45f
5:06 13 18 mph 1008.9mb 40f 45f
5:00 15 20 mph 1008.9mb 40f 45f
4:54 15 18 mph 1008.8mb 40f 46f
4:48 13 16 mph 1008.8mb 40f 46f
4:42 11 17 mph 1008.6mb 40f 46f
4:36 13 16 mph 1008.6mb 40f 46f
4:30 10 14 mph 1008.6mb 40f 46f
4:12 8 11 mph 1008.8mb 40f 46f
4:06 9 11 mph 1008.9mb 40f 46f
4:00 6 11 mph 1008.9mb 40f 46f
3:54 7 10 mph 1008.8mb 40f 46f
3:48 7 13 mph 1008.8mb 41f 46f
3:42 6 10 mph 1008.7mb 41f 46f
3:36 7 13 mph 1008.7mb 41f 46f
3:30 7 11 mph 1008.4mb 41f 46f
3:24 7 14 mph 1008.4mb 41f 47f
3:18 7 13 mph 1008.3mb 41f 47f
3:12 9 13 mph 1008.2mb 41f 47f
3:06 7 14 mph 1008.2mb 41f 47f
3:00 6 14 mph 1007.9mb 41f 47f
2:54 8 14 mph 1007.9mb 41f 47f
2:48 8 16 mph 1007.9mb 41f 47f
2:42 8 14 mph 1008mb 41f 47f
2:36 10 18 mph 1008mb 41f 47f
2:30 8 14 mph 1008.1mb 41f 47f
2:24 7 10 mph 1008mb 41f 48f
2:18 8 13 mph 1007.8mb 41f 48f
2:12 8 13 mph 1007.6mb 41f 48f
2:06 7 10 mph 1007.5mb 41f 48f
2:00 8 13 mph 1007.4mb 41f 48f
1:54 9 14 mph 1007.4mb 41f 48f
1:48 9 14 mph 1007.4mb 41f 48f
1:42 7 11 mph 1007.4mb 41f 48f
1:36 7 13 mph 1007.3mb 41f 49f
1:30 7 14 mph 1007.1mb 41f 49f
1:24 7 14 mph 1007.1mb 41f 49f
1:18 9 11 mph 1007.1mb 41f 49f
1:12 6 11 mph 1007.1mb 41f 50f
1:06 6 9 mph 1007.2mb 41f 50f
1:00 7 13 mph 1007.2mb 41f -
12:54 7 11 mph 1007.3mb 41f 49f
12:48 6 11 mph 1007.3mb 40f 49f
12:42 7 10 mph 1007.5mb 40f 49f
12:36 3 8 mph 1007.5mb 40f 49f
12:30 5 7 mph 1007.6mb 40f 49f
12:24 6 7 mph 1007.6mb 40f 49f
12:18 3 9 mph 1007.5mb 40f 48f
12:12 6 9 mph 1007.5mb 40f 48f
12:06 5 7 mph 1007.6mb 40f 48f
12:00 5 8 mph 1007.6mb 40f 48f
11:54 5 9 mph 1007.6mb 40f 47f
11:48 5 7 mph 1007.6mb 40f 47f
11:42 5 7 mph 1007.7mb 40f 47f
11:36 5 7 mph 1007.7mb 40f 47f
11:30 5 7 mph 1007.7mb 40f 46f
11:24 5 6 mph 1007.9mb 40f 46f
11:18  -  1 mph 1008mb 40f 46f
11:12  -  2 mph 1008.1mb 40f 46f
11:06 2 3 mph 1008.1mb 40f 46f
11:00  -  1 mph 1008.1mb 40f 46f
10:54  -  1 mph 1008.2mb 40f 46f
10:48 1 2 mph 1008.2mb 40f 45f
10:42 2 5 mph 1008mb 40f 45f
10:36 1 3 mph 1008mb 40f 45f
10:30 2 3 mph 1007.9mb 40f 44f
10:24 3
mph
1008mb 40f 44f
10:18 3 5 mph 1008mb 40f 44f
10:12 2 5 mph 1008mb 40f 43f
10:06 2 5 mph 1008mb 40f 43f
10:00 3 6 mph 1007.9mb 40f 43f
9:54 2 5 mph 1008mb 40f 42f
9:48 2 5 mph 1008.1mb 40f 42f
9:42 1 5 mph 1008mb 40f 42f
9:36 2 3 mph 1007.9mb 40f 42f
9:30 2 5 mph 1007.9mb 40f 41f
9:24 3 8 mph 1007.5mb 40f 41f
9:18 6 9 mph 1007.5mb 40f 41f
9:12 7 9 mph 1007.5mb 40f 40f
9:06 6 8 mph 1007.5mb 40f 40f
9:00 6 7 mph 1007.5mb 40f 40f
8:54 3 6 mph 1007.7mb 40f 40f
8:48 3 5 mph - 40f 40f
8:42 2 5 mph - 40f 40f
8:36 3 6 mph - 40f 39f
8:30 3 5 mph 1008.1mb 40f 39f
8:24 2 5 mph 1008.2mb 40f 39f
8:18 2
mph
1008.2mb 40f 39f
8:12  -  1 mph 1008mb 40f 39f
8:06 1 2 mph 1008mb 40f 39f
8:00  -  1 mph 1007.9mb 40f 38f
7:54  -  2 mph 1007.9mb 40f 38f
7:48  -  1 mph 1007.8mb 40f 38f
7:42  -  1 mph 1007.7mb 40f 38f
7:36  -  2 mph 1007.6mb 40f 38f
7:30 2 3 mph 1007.6mb 40f 38f
7:24 2 3 mph 1007.6mb 40f 38f
7:18 2 5 mph 1007.4mb 40f 38f
7:12 2 3 mph 1007.4mb 40f 38f
7:06 2 5 mph 1007.5mb 40f 38f
7:00 1 3 mph 1007.5mb 40f 38f
6:54  -  5 mph 1007.5mb 40f 38f
6:48 2 3 mph 1007.5mb 40f 38f
6:42 1 3 mph 1007.7mb 40f 38f
6:36 2 3 mph 1007.6mb 40f 38f
6:30 1 2 mph 1007.5mb 40f 38f
6:24  -  1 mph 1007.4mb 41f 38f
6:18  -  2 mph 1007.3mb 41f 39f
6:12 2 3 mph 1007.3mb 41f 38f
6:06 1 2 mph 1007.3mb 41f 38f
6:00 1 2 mph 1007.2mb 41f 38f
5:54  -  1 mph 1007.2mb 41f 38f
5:48  -  1 mph 1007.1mb 41f 38f
5:42  -  1 mph 1007.1mb 41f 38f
5:36  -  3 mph 1007mb 41f 38f
5:30 2 3 mph 1007mb 41f 38f
5:24 2 3 mph 1006.7mb 40f 38f
5:18  -  3 mph 1006.6mb 40f 38f
5:12 2 3 mph 1006.5mb 40f 38f
5:06 2
mph
1006.4mb 40f 38f
5:00 1 2 mph 1006.5mb 40f 38f
4:54 3
mph
1006.5mb 40f 38f
4:48  -  mph 1006.3mb 40f 38f
4:42  -  3 mph 1006.3mb 40f 39f
4:36 2 3 mph 1006.5mb 40f 39f
4:30 1 7 mph 1006.5mb 40f 39f
4:24 6
mph
1006.5mb 40f 39f
4:18 2 5 mph 1006.4mb 40f 39f
4:12  -  3 mph 1006.3mb 40f 39f
4:06  -  1 mph 1006.4mb 40f 39f
4:00 2
mph
1006.2mb 40f 39f
3:54 1 2 mph 1006.3mb 40f 39f
3:48 1 3 mph 1006.3mb 41f 38f
3:42 2 5 mph 1006.5mb 41f 38f
3:36 2 3 mph 1006.7mb 41f 38f
3:30 3 5 mph 1006.6mb 41f 38f
3:24 2 3 mph 1006.4mb 41f 38f
3:18 2 5 mph 1006.5mb 41f 38f
3:12 5
mph
1006.4mb 41f 38f
3:06  -  1 mph 1006.4mb 41f 38f
3:00  -  1 mph 1006.5mb 41f 38f
2:54  -  1 mph 1006.7mb 41f 38f
2:48  -  2 mph 1006.7mb 41f 38f
2:42  -  1 mph 1006.7mb 41f 38f
2:36 1 2 mph 1006.7mb 41f 38f
2:30  -  1 mph 1006.7mb 41f 39f
2:24 1
mph
1006.9mb 41f 38f
2:18  -  mph 1007mb - -
2:12  -  1 mph 1007.1mb 41f 38f
2:06  -  1 mph 1007.1mb 41f 38f
2:00  -  mph 1007.1mb 41f 38f
1:54  -  1 mph 1007.1mb 41f 38f
1:48  -  1 mph 1007.2mb 41f 38f
1:42 1 2 mph 1007.1mb 41f -
1:36  -  1 mph 1007.2mb 41f -
1:30  -  1 mph 1007.1mb 41f 38f
1:24  -  2 mph 1007mb 41f 38f
1:18 1 2 mph 1006.9mb 41f 39f
1:12 1 5 mph 1006.8mb 41f 38f
1:06 3 5 mph 1006.8mb 41f 38f
1:00 1 3 mph 1006.7mb 41f 39f
12:54 1 2 mph 1006.7mb 41f 39f
12:48  -  1 mph 1006.7mb 41f -
12:42  -  mph 1006.7mb 41f 39f
12:36  -  1 mph 1006.9mb 41f 39f
12:30  -  2 mph 1006.8mb 41f 39f
12:24  -  2 mph 1006.8mb 41f 40f
12:18 2 5 mph 1006.7mb 41f 40f
12:12 3
mph
1006.7mb 41f 40f
12:06 3 5 mph 1006.7mb 41f 40f
12:00 5 6 mph 1006.7mb 41f 40f
Sáb 01/21 11:54 5 6 mph 1006.7mb 41f 40f
11:48 3
mph
1006.8mb 40f 40f
11:42 2 3 mph 1006.8mb 40f 40f
11:36 1 2 mph 1006.7mb 40f 40f
11:30 2
mph
1006.7mb 40f 40f
11:24  -  1 mph 1006.8mb 40f 40f
11:18  -  2 mph 1006.8mb 40f 40f
11:12 2 3 mph 1007mb 40f 40f
11:06 2
mph
1007.1mb 40f 40f
11:00 2
mph
1007.1mb 40f 40f
10:54 2 3 mph 1007.1mb 40f 40f
10:48 3
mph
1006.9mb 40f 40f
10:42 3
mph
1007mb 40f 40f
10:36 2 3 mph 1006.9mb 40f 40f
10:30 3
mph
1007mb 40f 40f
10:24 3 6 mph 1007mb 40f 40f
10:18 6 7 mph 1007mb 40f 40f
10:12 5
mph
1007mb 40f 40f
10:06 3 5 mph 1007mb 40f 41f
10:00 2
mph
1007mb 40f 41f
9:54 2 5 mph 1007mb 40f 41f
9:48 5 6 mph 1007.1mb 40f -
9:42 3 5 mph 1007.1mb 40f 41f
9:36 5 6 mph 1007.2mb 40f 41f
9:30 5 8 mph 1007.2mb 40f 41f
9:24 6 8 mph 1007.2mb 40f 41f
9:18 6 7 mph 1007.4mb 40f 41f
9:12 5 6 mph 1007.4mb 40f 41f
9:06 6
mph
1007.5mb 40f 41f
9:00 5 6 mph 1007.6mb - -
8:54 3 6 mph 1007.5mb 40f 42f
8:48 5 6 mph 1007.5mb - -
8:42 3
mph
1007.5mb 40f 42f
8:36 2 5 mph 1007.5mb 40f 42f
8:30 5 6 mph 1007.5mb 40f -
8:24 6 7 mph 1007.6mb 40f 42f
8:18 5 6 mph 1007.6mb 40f 42f
8:12 5
mph
1007.6mb 40f 42f
8:06 2 6 mph 1007.5mb 40f 42f
8:00 6 7 mph 1007.5mb 40f 42f
7:54 5 7 mph 1007.5mb 40f 42f
7:48 7 8 mph 1007.5mb 40f 42f
7:42 7 8 mph 1007.5mb 40f 42f
7:36 7 8 mph 1007.4mb 40f 43f
7:30 7 8 mph 1007.3mb 40f 43f
7:24 6 7 mph 1007.4mb 40f 44f
7:18 6 7 mph 1007.4mb - -
7:12 6 8 mph 1007.5mb 40f 44f
7:06 6 7 mph 1007.5mb 40f 44f
7:00 6 7 mph 1007.5mb 40f 45f
6:54 7 8 mph 1007.4mb 40f 45f
6:48 7 8 mph 1007.4mb 40f -
6:42 5 6 mph 1007.3mb 40f -
6:36 2 6 mph 1007.3mb 40f -
6:30 5 7 mph 1007.3mb 40f 50f
6:24 5 7 mph 1007.3mb 40f 50f
6:18 6 7 mph 1007.2mb 40f 50f
6:12 5 6 mph 1007.2mb 40f 50f
6:06 6 9 mph 1007.1mb 40f 51f
6:00 6 8 mph 1007.1mb 40f 51f
5:54 6 8 mph 1007.1mb 40f 51f
5:48 7 9 mph 1007.1mb - -
5:42 7 11 mph 1007mb 40f -
5:36 6 10 mph 1006.9mb 40f -
5:30 7 10 mph 1006.9mb 40f 52f
5:24 6 7 mph 1007.1mb 40f 52f
5:18 6 8 mph 1007mb 40f 53f
5:12 5 7 mph 1007.1mb 40f 53f
5:06 6 8 mph 1007.1mb 40f 53f
5:00 6 9 mph 1007.1mb 40f 53f
4:54 5 8 mph 1007mb 40f 54f
4:48 5 8 mph 1006.9mb 40f 54f
4:42 6 9 mph 1006.8mb 40f 54f
4:36 6 8 mph 1006.8mb 40f 54f
4:30 7 10 mph 1006.8mb 40f 55f
4:24 9 13 mph 1006.8mb 40f 55f
4:18 8 13 mph 1006.8mb 40f 55f
4:12 7 13 mph 1006.7mb 40f 56f
4:06 6 11 mph 1006.5mb 40f 56f
4:00 8 11 mph 1006.5mb 40f 56f
3:54 7 10 mph 1006.3mb 40f 56f
3:48 5 9 mph 1006.3mb 40f 56f
3:42 8 10 mph 1006.2mb 40f 56f
3:36 7 9 mph 1006.3mb 40f 56f
3:30 7 13 mph 1006.2mb 40f 56f
3:24 8 11 mph 1006.2mb 40f 56f
3:18 9 15 mph 1006.3mb 40f 56f
3:12 6 10 mph 1006.4mb 40f 56f
3:06 5 8 mph 1006.4mb 41f 56f
3:00 6 7 mph 1006.4mb 41f 56f
2:54 5 7 mph 1006.4mb 41f 56f
2:48 7 10 mph 1006.4mb 41f 56f
2:42 5 9 mph 1006.4mb 41f 56f
2:36 3 6 mph 1006.4mb 41f 56f
2:30 3 8 mph 1006.4mb 41f 56f
2:24 5 7 mph 1006.6mb 41f 55f
2:18 6 8 mph 1006.5mb 41f 55f
2:12 5 7 mph 1006.5mb 41f 55f
2:06 5 9 mph 1006.6mb 41f 54f
2:00 8 10 mph 1006.8mb 41f 54f
1:54 8 11 mph 1006.8mb 41f 54f
1:48 9 11 mph - 41f 54f
1:42 5 9 mph - 41f 54f
1:36 7 10 mph - 41f 53f
1:30 3 8 mph 1006.8mb 41f 53f
1:24 6 10 mph 1007.3mb 41f 52f
1:18 5 7 mph 1007.3mb 41f 52f
1:12 6 11 mph 1007.3mb 41f 51f
1:06 5 11 mph 1007.5mb 41f 51f
1:00 8 9 mph 1007.6mb 41f 50f
12:54 8 9 mph 1007.7mb 40f 50f
12:48 8 10 mph 1007.5mb 40f 49f
12:42 8 10 mph 1007.6mb 40f 49f
12:36 7 8 mph 1007.6mb 40f 48f
12:30 6 8 mph 1007.6mb 40f 48f
12:24 6 8 mph 1007.6mb 40f 48f
12:18 6 8 mph 1007.9mb 40f 48f
12:12 5 6 mph 1008mb 40f 48f
12:06 5 6 mph 1008mb 40f 48f
12:00 5 6 mph 1008mb 40f 47f
11:54 5 8 mph 1008.2mb 40f 47f
11:48 5 7 mph 1008.5mb 40f -
11:42 3 6 mph 1008.7mb 40f 47f
11:36 5 7 mph 1008.8mb 40f 47f
11:30 5 7 mph 1009.1mb 40f 47f
11:24 5 7 mph 1009.3mb 40f 47f
11:18 6 7 mph 1009.3mb 40f 47f
11:12 3 8 mph 1009.4mb 40f 46f
11:06 6 7 mph 1009.4mb 40f 46f
11:00 3 8 mph 1009.4mb 40f 46f
10:54 7 10 mph 1009.4mb 40f 46f
10:48 8 10 mph 1009.6mb 40f 46f
10:42 7 9 mph 1009.6mb 40f 46f
10:36 6 8 mph 1009.8mb 40f 46f
10:30 6 8 mph 1009.8mb 40f 46f
10:24 5 8 mph 1009.9mb 40f 45f
10:18 5 8 mph 1010.1mb 40f 45f
10:12 7 8 mph 1010.2mb 40f 45f
10:06 6 9 mph 1010.2mb 40f 45f
10:00 3 6 mph 1010.2mb 40f 45f
9:54 3 6 mph 1010mb 40f 44f
9:48 6 8 mph 1010mb 40f 44f
9:42 6 7 mph 1010mb 40f 44f
9:36 6 8 mph 1009.9mb 40f 44f
9:30 6 10 mph 1010mb 40f 44f
9:24 5 9 mph 1010mb 40f 44f
9:18 8 9 mph 1009.9mb 40f -
9:12 5 7 mph 1009.9mb 40f 44f
9:06 6 10 mph 1010.2mb 40f 43f
9:00 9 13 mph 1010.2mb 40f 43f
8:54 9 13 mph 1009.9mb 40f 43f
8:48 5 8 mph 1009.9mb 40f 44f
8:42 5 6 mph 1009.9mb 40f 44f
8:36 3 5 mph 1009.8mb 40f 44f
8:30 3 5 mph 1009.9mb 40f 43f
8:24 2 6 mph 1010.1mb 40f 43f
8:18 2 7 mph 1010.3mb 40f 43f
8:12 7 9 mph 1010.5mb 40f 42f
8:06 7 10 mph 1010.5mb 40f 42f
8:00 7 9 mph 1010.6mb 40f 42f
7:54 6 9 mph 1010.6mb 40f 42f
7:48 3 5 mph 1010.5mb 40f 42f
7:42 2 5 mph 1010.5mb 40f 42f
7:36 1 3 mph 1010.5mb 40f 41f
7:30 2 3 mph 1010.5mb 40f 41f
7:24 2 5 mph 1010.4mb 40f 41f
7:18 3 5 mph 1010.4mb 40f -
7:12 2 5 mph 1010.3mb 40f 41f
7:06 3
mph
1010.4mb 40f 41f
7:00 2 3 mph 1010.4mb 40f 41f
6:54 3 5 mph 1010.4mb 40f 41f
6:48 3
mph
1010.4mb 40f 41f
6:42 3
mph
1010.4mb 40f 41f
6:36 3
mph
1010.5mb 40f 41f
6:30 2 3 mph 1010.5mb 40f 41f
6:24 2 5 mph 1010.5mb 40f 41f
6:18 3 5 mph 1010.6mb 40f 41f
6:12 2 3 mph 1010.5mb 40f 40f
6:06 2 5 mph 1010.4mb 40f 40f
6:00 3 5 mph 1010.3mb 40f 40f
5:54 5 6 mph 1010.3mb 40f 40f
5:48 5 6 mph 1010.2mb 40f 40f
5:42 3 5 mph 1010.2mb 40f 40f
5:36 3 5 mph 1010.3mb 40f 40f
5:30 1 2 mph 1010.3mb 40f 40f
5:24 2 3 mph 1010.3mb 40f 41f
5:18 3 5 mph 1010.3mb 40f 40f
5:12 2 3 mph 1010.4mb 40f 40f
5:06 2 3 mph 1010.4mb 40f 40f
5:00 3 5 mph 1010.4mb 40f 40f
4:54 3 6 mph 1010.6mb 40f 40f
4:48 2 3 mph 1010.7mb 40f 40f
4:42 5 6 mph 1010.7mb 40f 40f
4:36 2 5 mph 1010.8mb 40f 40f
4:30 3 5 mph 1010.8mb 40f 40f
4:24 2 3 mph 1010.8mb 40f 40f
4:18 3 5 mph 1010.8mb 40f 40f
4:12 3 5 mph 1010.8mb 40f 40f
4:06 5 6 mph 1010.8mb 40f 40f
4:00 3 5 mph 1010.8mb 40f 40f
3:54 3 5 mph 1010.9mb 40f 40f
3:48 3 6 mph 1011mb 40f 40f
3:42 3 5 mph 1011.1mb 40f 40f
3:36 3 5 mph 1011.2mb 40f 40f
3:30 3 5 mph 1011.2mb 40f 40f
3:24 3 5 mph 1011.4mb 40f 40f
3:18 3 5 mph 1011.4mb 40f 40f
3:12 2 3 mph 1011.6mb 40f 40f
3:06 1 3 mph 1011.7mb 40f 40f
3:00 2 3 mph 1011.7mb 40f 40f
2:54 2 3 mph 1011.9mb 40f 40f
2:48 3 5 mph 1011.9mb 40f -
2:42 2 5 mph 1011.9mb 40f 40f
2:36 2 5 mph 1012mb 40f 40f
2:30 3 6 mph 1012.1mb 40f 40f
2:24 3 6 mph 1012mb 40f 40f
2:18 6
mph
1012mb 40f 40f
2:12 5 6 mph 1012.1mb 40f 40f
2:06 3 5 mph 1012.1mb 40f 40f
2:00 3 5 mph 1012.2mb 40f 40f
1:54 3 5 mph 1012.2mb 40f 40f
1:48 3 5 mph 1012.2mb 40f 40f
1:42 3 5 mph 1012.1mb 40f 40f
1:36 3 5 mph 1012.1mb 40f 40f
1:30 5 6 mph 1012mb 40f 40f
1:24 5 6 mph 1012mb 40f 40f
1:18 3 5 mph 1012.1mb 40f 40f
1:12 3
mph
1012.1mb 40f 40f
1:00 2
mph
- - -
12:54 1 2 mph 1012.1mb 40f 40f
12:48 2 3 mph 1012.2mb 40f 40f
12:42 3
mph
1012.2mb 40f -
12:36 2 3 mph 1012.3mb 40f -
12:30 3 5 mph 1012.4mb 40f 40f
12:24 3
mph
1012.4mb 40f 40f
12:18 3 5 mph 1012.3mb 40f 40f
12:12 3 5 mph 1012.3mb 40f 40f
12:06 5
mph
1012.3mb 40f 40f
12:00 2 5 mph 1012.3mb 40f 40f
Sex 01/20 11:54 5
mph
1012.3mb 40f 40f
11:48 3
mph
1012.4mb 40f -
11:42 3 5 mph 1012.5mb 40f 40f
11:36 3 5 mph 1012.5mb 40f 40f
11:30 2 3 mph 1012.6mb 40f 40f
11:24 3 5 mph 1012.7mb 40f 40f
11:18 5 6 mph 1012.7mb 40f 40f
11:12 5 6 mph 1012.8mb 40f 40f
11:06 5 6 mph 1012.8mb 40f 40f
11:00 3 5 mph 1012.9mb 40f 40f
10:54 3 7 mph 1013mb 40f 40f
10:48 3 6 mph 1013.1mb 40f 40f
10:42 3 5 mph 1013.1mb 40f 40f
10:36 3 5 mph 1013.1mb 40f 40f
10:30 5
mph
1013.1mb 40f 40f
10:24 3 6 mph 1013.1mb 40f 40f
10:18 3 5 mph 1013.1mb 40f 40f
10:12 3 5 mph 1013.1mb 40f 40f
10:06 3 5 mph 1013.1mb 40f 40f
10:00 2 5 mph 1013.1mb - -
9:54 3 6 mph 1013.2mb 40f 40f
9:48 6 7 mph 1013.2mb - -
9:42 6 7 mph 1013.1mb 40f 40f
9:36 3 7 mph 1013.1mb 40f 40f
9:30 5 6 mph 1013.1mb 40f 40f
9:24 5 7 mph 1013.2mb 40f 40f
9:18 6 8 mph 1013.2mb 40f 40f
9:12 6 7 mph 1013.3mb 39f 40f
9:06 5 7 mph 1013.3mb 39f 40f
9:00 3 7 mph 1013.3mb 39f 40f
8:54 5 6 mph 1013.2mb 39f 40f
8:48 5 7 mph 1013.3mb - -
8:42 5 7 mph 1013.2mb 39f 40f
8:36 6 8 mph 1013.2mb 39f 40f
8:30 6 8 mph 1013.3mb 39f 40f
8:24 6 8 mph 1013.3mb 39f 40f
8:18 5 6 mph 1013.3mb 39f 40f
8:12 5 7 mph 1013.3mb 39f 40f
8:06 6 8 mph 1013.3mb 39f 40f
8:00 6 8 mph 1013.3mb 39f 40f
7:54 6 7 mph 1013.4mb 39f 40f
7:48 3 5 mph - 39f 40f
7:42 3 5 mph - 39f 40f
7:36 3 5 mph - 39f 40f
7:30 2 3 mph 1013.6mb 39f 40f
7:24  -  2 mph 1013.6mb 39f 40f
7:18 2 3 mph - - -
7:12 2 3 mph 1013.6mb 39f 40f
7:06 3 6 mph 1013.6mb 39f 40f
7:00 5 6 mph 1013.6mb 39f 40f
6:54 5 6 mph 1013.7mb 39f 40f
6:48 3 5 mph 1013.7mb - -
6:42 2 5 mph 1013.7mb 39f 40f
6:36 5 7 mph 1013.8mb 39f 40f
6:30 7 8 mph 1013.8mb 39f 40f
6:24 6 7 mph 1013.8mb 39f 40f
6:18 6 7 mph 1013.8mb 39f 40f
6:12 6 8 mph 1013.8mb 39f 40f
6:06 7 9 mph 1013.8mb 39f 40f
6:00 7 9 mph 1013.7mb 39f 40f
5:54 8 9 mph 1013.8mb 39f 40f
5:48 6 9 mph 1013.8mb - -
5:42 8 9 mph 1013.7mb 39f 40f
5:36 7 9 mph 1013.7mb 39f 40f
5:30 6 8 mph 1013.7mb 39f 40f
5:24 5 7 mph 1013.6mb 39f 40f
5:18 5 7 mph 1013.6mb 39f 40f
5:12 6 7 mph 1013.5mb 39f 40f
5:06 6 8 mph 1013.3mb 39f 40f
5:00 6 7 mph 1013.3mb 39f 40f
4:54 3 5 mph 1013.2mb 39f 41f
4:48 3 6 mph 1013.2mb 39f 41f
4:42 5 6 mph 1013.1mb 39f 41f
4:36 6
mph
1013.1mb 39f 41f
4:30 6 7 mph 1013.1mb 39f 41f
4:24 6 7 mph 1013.1mb 39f 41f
4:18 5 6 mph 1013.1mb 39f 41f
4:12 5 6 mph 1013.1mb 39f 41f
4:06 5 6 mph 1013.1mb 40f 41f
4:00 3 5 mph 1013.2mb 40f 41f
3:54 3 5 mph 1013.2mb 40f 41f
3:48 3 6 mph 1013.2mb 40f 41f
3:42 3 6 mph 1013.3mb 40f 41f
3:36 6 7 mph 1013.3mb 40f 41f
3:30 6
mph
1013.4mb 40f 41f
3:24 6 7 mph 1013.5mb 40f 41f
3:18 6 8 mph 1013.5mb 40f -